Weather History for Adak, AK

Change the Weather History Date:

Thursday, February 7, 2013

  Actual Average Record
Temperature  
Mean Temperature 34 °F -  
Max Temperature 37 °F 36 °F 44 °F (1985)
Min Temperature 30 °F 28 °F 8 °F (1964)
Degree Days  
Heating Degree Days 30    
Moisture  
Dew Point 32 °F    
Average Humidity 90    
Maximum Humidity 100    
Minimum Humidity 80    
Precipitation  
Precipitation 0.03 in - - ()
Sea Level Pressure  
Sea Level Pressure 28.83 in    
Wind  
Wind Speed 12 mph (NNE)    
Max Wind Speed 32 mph    
Max Gust Speed 41 mph    
Visibility 9 miles    
Events      
Averages and records for this station are not official NWS values.
T = Trace of Precipitation, MM = Missing Value Source: NWS Daily Summary

Daily Weather History Graph

Daily Weather History Graph

Search for Another Location

Airport:

Trip Planner

Search our weather history database for the weather conditions in past years. The results will help you decide how hot, cold, wet, or windy it might be!

Date:

Astronomy

Feb. 07, 2013 Rise Set
Actual Time 9:15 AM HAST 6:47 PM HAST
Civil Twilight 8:39 AM HAST 7:22 PM HAST
Nautical Twilight 7:59 AM HAST 8:02 PM HAST
Astronomical Twilight 7:20 AM HAST 8:41 PM HAST
Moon 7:17 AM HAST (2/7) 4:18 PM HAST (2/7)
Length of Visible Light 10h 43m
Length of Day
9h 32m
Waning Crescent, 8% of the Moon is Illuminated
Feb 7
Waning Crescent
Feb 9
New
Feb 17
First Quarter
Feb 25
Full
Mar 4
Last Quarter

Hourly Weather History & Observations

Time (HAST) Temp. Windchill Dew Point Humidity Pressure Visibility Wind Dir Wind Speed Gust Speed Precip Events Conditions
12:16 AM 35.6 °F 25.2 °F 32.0 °F 87% 28.67 in 10.0 mi ESE 18.4 mph 26.5 mph N/A   Overcast
12:36 AM 35.6 °F 25.5 °F 33.8 °F 93% 28.66 in 9.0 mi ESE 17.3 mph - 0.01 in   Overcast
12:56 AM 35.6 °F 27.5 °F 32.0 °F 87% 28.66 in 8.0 mi SE 11.5 mph - 0.02 in   Overcast
1:16 AM 35.6 °F 27.5 °F 33.8 °F 93% 28.66 in 10.0 mi SSE 11.5 mph 17.3 mph 0.01 in   Overcast
1:36 AM 35.6 °F 28.0 °F 32.0 °F 87% 28.66 in 10.0 mi ESE 10.4 mph - 0.02 in   Overcast
1:56 AM 33.8 °F 27.7 °F 32.0 °F 93% 28.65 in 5.0 mi East 6.9 mph - 0.03 in   Overcast
2:16 AM 35.6 °F 29.9 °F 33.8 °F 93% 28.65 in 10.0 mi ESE 6.9 mph - N/A   Overcast
2:36 AM 35.6 °F 27.5 °F 33.8 °F 93% 28.65 in 9.0 mi SE 11.5 mph - N/A   Overcast
2:56 AM 35.6 °F 26.6 °F 33.8 °F 93% 28.65 in 10.0 mi SE 13.8 mph - 0.01 in   Overcast
3:16 AM 35.6 °F 26.6 °F 33.8 °F 93% 28.65 in 10.0 mi SE 13.8 mph - N/A   Overcast
3:36 AM 35.6 °F 28.0 °F 33.8 °F 93% 28.65 in 10.0 mi ESE 10.4 mph - N/A   Overcast
3:56 AM 35.6 °F 28.6 °F 33.8 °F 93% 28.65 in 10.0 mi East 9.2 mph - N/A   Overcast
4:16 AM 35.6 °F 29.2 °F 33.8 °F 93% 28.65 in 10.0 mi East 8.1 mph - N/A   Overcast
4:36 AM 35.6 °F 29.2 °F 33.8 °F 93% 28.65 in 10.0 mi East 8.1 mph - N/A   Overcast
4:56 AM 35.6 °F 28.0 °F 33.8 °F 93% 28.65 in 10.0 mi East 10.4 mph - N/A   Overcast
5:16 AM 35.6 °F 31.7 °F 33.8 °F 93% 28.66 in 10.0 mi SW 4.6 mph - N/A   Overcast
5:36 AM 35.6 °F - 32.0 °F 87% 28.66 in 10.0 mi Calm Calm - N/A   Overcast
5:56 AM 35.6 °F 32.8 °F 32.0 °F 87% 28.67 in 10.0 mi East 3.5 mph - N/A   Overcast
6:16 AM 33.8 °F 30.8 °F 33.8 °F 100% 28.67 in 10.0 mi NE 3.5 mph - N/A   Overcast
6:36 AM 33.8 °F 29.6 °F 32.0 °F 93% 28.67 in 10.0 mi North 4.6 mph - N/A   Overcast
6:56 AM 33.8 °F - 32.0 °F 93% 28.68 in 9.0 mi Calm Calm - N/A   Overcast
7:16 AM 33.8 °F 30.8 °F 32.0 °F 93% 28.68 in 10.0 mi NNE 3.5 mph - N/A   Overcast
7:36 AM 33.8 °F 30.8 °F 32.0 °F 93% 28.68 in 10.0 mi North 3.5 mph - N/A   Overcast
7:56 AM 33.8 °F 30.8 °F 30.2 °F 87% 28.69 in 10.0 mi North 3.5 mph - N/A   Mostly Cloudy
8:16 AM 33.8 °F 30.8 °F 32.0 °F 93% 28.69 in 10.0 mi North 3.5 mph - N/A   Overcast
8:36 AM 33.8 °F - 32.0 °F 93% 28.70 in 10.0 mi Calm Calm - N/A   Overcast
8:56 AM 33.8 °F - 32.0 °F 93% 28.71 in 10.0 mi Calm Calm - N/A   Overcast
9:16 AM 33.8 °F - 32.0 °F 93% 28.72 in 8.0 mi Calm Calm - N/A   Overcast
9:36 AM 33.8 °F - 32.0 °F 93% 28.73 in 10.0 mi Calm Calm - N/A   Overcast
9:56 AM 33.8 °F - 32.0 °F 93% 28.73 in 10.0 mi Calm Calm - N/A   Overcast
10:16 AM 33.8 °F - 32.0 °F 93% 28.74 in 10.0 mi Calm Calm - N/A   Overcast
10:36 AM 33.8 °F - 32.0 °F 93% 28.75 in 10.0 mi Calm Calm - N/A   Overcast
10:56 AM 33.8 °F 30.8 °F 33.8 °F 100% 28.75 in 10.0 mi NNW 3.5 mph - N/A   Overcast
11:16 AM 35.6 °F 31.7 °F 33.8 °F 93% 28.76 in 10.0 mi NNE 4.6 mph - N/A   Overcast
11:36 AM 35.6 °F 31.7 °F 33.8 °F 93% 28.77 in 10.0 mi NNW 4.6 mph - N/A   Overcast
11:56 AM 37.4 °F 32.8 °F 33.8 °F 87% 28.78 in 10.0 mi North 5.8 mph - N/A   Overcast
12:16 PM 37.4 °F 32.8 °F 33.8 °F 87% 28.78 in 10.0 mi North 5.8 mph - N/A   Overcast
12:36 PM 37.4 °F 32.8 °F 35.6 °F 93% 28.79 in 10.0 mi North 5.8 mph - N/A   Overcast
12:56 PM 37.4 °F 32.8 °F 35.6 °F 93% 28.79 in 10.0 mi North 5.8 mph - N/A   Overcast
1:16 PM 37.4 °F 32.8 °F 35.6 °F 93% 28.80 in 10.0 mi North 5.8 mph - N/A   Overcast
1:36 PM 35.6 °F 28.6 °F 33.8 °F 93% 28.81 in 5.0 mi North 9.2 mph - N/A   Overcast
1:56 PM 37.4 °F 29.3 °F 35.6 °F 93% 28.81 in 10.0 mi North 12.7 mph - N/A   Overcast
2:16 PM 37.4 °F 29.8 °F 35.6 °F 93% 28.82 in 9.0 mi North 11.5 mph - N/A   Overcast
2:36 PM 37.4 °F 28.9 °F 33.8 °F 87% 28.82 in 10.0 mi NNE 13.8 mph - N/A   Overcast
2:56 PM 37.4 °F 29.3 °F 33.8 °F 87% 28.84 in 10.0 mi NNE 12.7 mph - N/A   Overcast
3:16 PM 37.4 °F 29.3 °F 33.8 °F 87% 28.84 in 10.0 mi North 12.7 mph - N/A   Overcast
3:36 PM 37.4 °F 27.8 °F 33.8 °F 87% 28.85 in 7.0 mi NNE 17.3 mph 20.7 mph 0.01 in   Overcast
3:56 PM 35.6 °F 26.2 °F 33.8 °F 93% 28.86 in 9.0 mi North 15.0 mph 19.6 mph 0.01 in   Overcast
4:16 PM 35.6 °F 25.2 °F 33.8 °F 93% 28.87 in 10.0 mi North 18.4 mph - N/A   Overcast
4:36 PM 35.6 °F 25.2 °F 33.8 °F 93% 28.88 in 10.0 mi North 18.4 mph 27.6 mph N/A   Overcast
4:56 PM 35.6 °F 24.5 °F 33.8 °F 93% 28.89 in 10.0 mi North 20.7 mph 27.6 mph N/A   Overcast
5:16 PM 35.6 °F 23.7 °F 33.8 °F 93% 28.91 in 6.0 mi North 24.2 mph 29.9 mph N/A   Overcast
5:36 PM 35.6 °F 23.7 °F 33.8 °F 93% 28.93 in 8.0 mi North 24.2 mph 33.4 mph N/A   Overcast
5:56 PM 35.6 °F 23.0 °F 33.8 °F 93% 28.94 in 2.5 mi North 27.6 mph 35.7 mph 0.01 in   Overcast
6:16 PM 35.6 °F 23.7 °F 33.8 °F 93% 28.96 in 4.0 mi NNE 24.2 mph 34.5 mph N/A   Overcast
6:36 PM 35.6 °F 23.0 °F 32.0 °F 87% 28.98 in 8.0 mi North 27.6 mph 38.0 mph N/A   Mostly Cloudy
6:56 PM 35.6 °F 22.5 °F 32.0 °F 87% 29.00 in 5.0 mi North 29.9 mph 36.8 mph N/A   Overcast
7:16 PM 35.6 °F 22.1 °F 32.0 °F 87% 29.02 in 8.0 mi North 32.2 mph 40.3 mph 0.01 in   Overcast
7:36 PM 33.8 °F 20.5 °F 30.2 °F 87% 29.05 in 10.0 mi North 27.6 mph 38.0 mph 0.01 in   Mostly Cloudy
7:56 PM 33.8 °F 21.0 °F 30.2 °F 87% 29.07 in 9.0 mi North 25.3 mph 41.4 mph 0.01 in   Overcast
8:16 PM 33.8 °F 20.5 °F 30.2 °F 87% 29.09 in 3.0 mi North 27.6 mph 35.7 mph 0.01 in   Overcast
8:56 PM 33.8 °F 20.8 °F 28.4 °F 81% 29.13 in 3.0 mi North 26.5 mph 34.5 mph 0.01 in   Overcast
9:16 PM 33.8 °F 20.8 °F 28.4 °F 81% 29.15 in 3.0 mi North 26.5 mph 33.4 mph N/A   Overcast
9:36 PM 33.8 °F 20.5 °F 28.4 °F 81% 29.16 in 8.0 mi North 27.6 mph 38.0 mph N/A   Overcast
9:56 PM 33.8 °F 20.1 °F 28.4 °F 81% 29.17 in 10.0 mi North 29.9 mph 36.8 mph N/A   Overcast
10:16 PM 33.8 °F 21.3 °F 28.4 °F 81% 29.20 in 8.0 mi North 24.2 mph 34.5 mph N/A   Overcast
10:36 PM 32.0 °F 18.1 °F 26.6 °F 80% 29.21 in 10.0 mi North 27.6 mph 34.5 mph N/A   Overcast
10:56 PM 32.0 °F 18.1 °F 26.6 °F 80% 29.23 in 10.0 mi North 27.6 mph 32.2 mph N/A   Overcast
11:16 PM 32.0 °F 18.4 °F 26.6 °F 80% 29.24 in 6.0 mi North 26.5 mph 32.2 mph N/A   Overcast
11:36 PM 32.0 °F 17.9 °F 26.6 °F 80% 29.25 in 10.0 mi North 28.8 mph 34.5 mph N/A   Overcast
11:56 PM 30.2 °F 16.2 °F 26.6 °F 86% 29.26 in 5.0 mi North 25.3 mph 35.7 mph N/A   Overcast